Other Public Products
Issued by NWS Grand Forks, ND

Home | Current Version | Previous Version | Graphics & Text | Print | Product List | Glossary On
Versions: 1 2 3 4 5 6 7 8 9 10 11 12 13 14 15 16 17 18 19 20 21 22 23 24 25 26 27 28 29 30 31 32 33 34 35 36 37 38 39 40 41 42 43 44 45 46 47 48 49 50
000
FPUS83 KFGF 220710
OPUFGF
PRAIRIE TO PINES WEATHER ROUNDUP
NATIONAL WEATHER SERVICE EASTERN NORTH DAKOTA/GRAND FORKS ND
100 AM CST WED FEB 22 2017

 **SATELLITE DATA USED TO AUGMENT SKY COVER AT AUTOMATED STATIONS**
 *****  WEATHER ACROSS EASTERN NORTH DAKOTA  *****

CITY           SKY/WX    TMP DP  RH WIND       PRES   REMARKS
GRAND FORKS    CLOUDY    33  29  85 NW7       29.68R FOG
GRAND FORKS AF FOG       32  32 100 N5        29.68S VSB 3/4
GRAND CITY NWS NOT AVBL
BUXTON         NOT AVBL
DEVILS LAKE    CLOUDY    33  33 100 NW5       29.67S
FARGO          FAIR      33  33 100 NW3       29.64S
WAHPETON ARPT  FAIR      36  32  87 CALM      29.63F
$$

 *****  WEATHER ACROSS CENTRAL AND WESTERN NORTH DAKOTA  *****

CITY           SKY/WX    TMP DP  RH WIND       PRES   REMARKS
JAMESTOWN      FAIR      32  30  92 CALM      29.63F
BISMARCK       FAIR      32  31  96 E3        29.62F
MINOT          CLOUDY    34  32  92 NW10      29.68R FOG
MINOT AFB      LGT SNOW  32  32 100 N8        29.69R FOG     WCI  25
GARRISON         N/A     34  32  92 NE7       29.65S
WILLISTON      LGT SNOW  33  32  96 N10       29.71S VSB 1   WCI  25
DICKINSON      FAIR      33  31  92 CALM      29.64R
HETTINGER      MOCLDY    37  35  92 SW3       29.67R
$$

 *****  OTHER OBSERVATIONS NORTHEAST NORTH DAKOTA  *****

CITY           SKY/WX    TMP DP  RH WIND       PRES   REMARKS
WALHALLA       NOT AVBL
LANGDON        NOT AVBL
CAVALIER       FOG       32  32 100 NW10      29.72R VSB 1/4 WCI  24
GRAFTON        FOG       30  30 100 NW10      29.72R VSB 1/4 WCI  21
CANDO          NOT AVBL
FORT TOTTEN      N/A     35  35 100 N2        29.95S
ROLLA          NOT AVBL
RUGBY            N/A     32  32 100 NE7       29.66F
 ***** THE ABOVE OBSERVATIONS ARE NON NWS ARE NOT QUALITY
        CONTROLLED AND MAY MIS-REPORT RAIN FOR SNOW...
$$

 *****  OTHER OBSERVATIONS SOUTHEAST NORTH DAKOTA *****

CITY           SKY/WX    TMP DP  RH WIND       PRES   REMARKS
COOPERSTOWN    CLOUDY    34  34 100 CALM      29.66R
VALLEY CITY    FAIR      32  32 100 CALM      29.65F
OAKES          NOT AVBL
GWINNER        PTSUNNY   39  37  93 N5        29.63S
SHEYENNE NWR     N/A     36  36 100 N2        29.95S
BUFFALO        NOT AVBL
WYNDMERE       NOT AVBL
 ***** THE ABOVE OBSERVATIONS ARE NON NWS ARE NOT QUALITY
       CONTROLLED AND MAY MIS-REPORT RAIN FOR SNOW...
$$

  *****  WEATHER ACROSS NORTHERN MINNESOTA  *****

CITY           SKY/WX    TMP DP  RH WIND       PRES   REMARKS
FLAG ISLAND    CLOUDY    34  30  86 N5        29.68R
WARROAD        CLOUDY    32  28  86 NE6       29.68S
ROSEAU         MOCLDY    30  27  86 N6        29.68R HAZE    WCI  24
HALLOCK        FAIR      30  30 100 CALM      29.69R
THF RVR FALLS  MOCLDY    32  31  96 W6        29.67R FOG
HALSTAD          N/A     32  32 100 NW2         N/A
FOSSTON        FOG       32  32 100 S3        29.65F VSB<1/4
BAUDETTE       MOCLDY    31  30  96 NE6       29.65R
WASKISH        CLOUDY    34  32  93 CALM      29.65S
CROOKSTON      CLOUDY    32  32 100 NW6       29.69R FOG
$$
  *****  WEATHER ACROSS CENTRAL AND WEST MINNESOTA  *****

CITY           SKY/WX    TMP DP  RH WIND       PRES   REMARKS
BEMIDJI        MOCLDY    35  35 100 CALM      29.64F FOG
PARK RAPIDS    MOCLDY    33  30  88 S3        29.65F
WADENA         MOCLDY    34  34 100 CALM      29.65F FOG
DETROIT LAKES  FAIR      32  32 100 CALM      29.64F
MOORHEAD       FOG       34  32  93 CALM      29.66R VSB 1/2
FERGUS FALLS   FAIR      39  36  87 SE10      29.65F
ELBOW LAKE     FAIR      41  39  93 NE6       29.63F
MORRIS MN      FAIR      37  37 100 E7        29.63F
STAPLES        FOG       34  34 100 CALM      29.66F VSB 1
WHEATON        FAIR      37  37 100 CALM      29.66R
$$
  *****  WEATHER ELSEWHERE ACROSS MINNESOTA  *****

CITY           SKY/WX    TMP DP  RH WIND       PRES   REMARKS
DULUTH         MOCLDY    40  37  89 CALM      29.64S
INTRNTL FALLS  FAIR      32  30  92 CALM      29.64S
ELY            FAIR      36  34  93 CALM      29.62F
CLOQUET        CLOUDY    39  36  87 W3        29.65F
BRAINERD       FAIR      31  31 100 CALM      29.65F FOG
HIBBING        CLOUDY    37  37 100 S3        29.62S
ALEXANDRIA     FAIR      36  36 100 NE6       29.65F
SAINT CLOUD    FOG       34  34 100 CALM      29.66F VSB 1/2
MINNEAPOLIS    MOCLDY    44  40  85 CALM      29.69R
$$

  *****  WEATHER ACROSS SOUTH DAKOTA  *****

CITY           SKY/WX    TMP DP  RH WIND       PRES   REMARKS
SIOUX FALLS    FAIR      43  38  82 SE5       29.66S
BROOKINGS      MOCLDY    49  39  68 N12G39    29.66R
WATERTOWN      FAIR      48  44  86 NE7       29.62F
HURON          FAIR      42  40  92 SE3       29.61F
SISSETON         N/A     38  38 100 W5        29.64F
ABERDEEN       FAIR      41  35  79 NE8       29.62F
MITCHELL       FAIR      47  36  65 SW8       29.63F
PIERRE         FAIR      46  38  73 N7        29.60F
MOBRIDGE       FAIR      38  32  79 S6        29.62R
RAPID CITY     LGT RAIN  46  37  71 W28G37    29.74R
$$

  *****  SOME WEATHER IN NEARBY STATES *****

CITY           SKY/WX    TMP DP  RH WIND       PRES   REMARKS
GLASGOW MT     LGT SNOW  33  31  92 NE8       29.73R FOG
GREAT FALLS MT CLOUDY    32  31  96 NW7       29.76R
CHEYENNE WY    FAIR      46  18  32 W13       29.87R
SCOTTSBLUFF NE FAIR      43  22  43 NW7       29.76S
OMAHA NE       FAIR      46  35  65 SE12      29.75F
DES MOINES IA  FAIR      50  33  52 S9        29.77F
DAVENPORT IA   FAIR      48  48 100 S7        29.83F FOG
CHICAGO IL     MOCLDY    56  52  86 SW5       29.84S
EAU CLAIRE WI  FAIR      42  38  85 S3        29.68F
LA CROSSE WI   FAIR      50  39  66 S13       29.72F
$$

  *****  SOME NATIONAL WEATHER *****

CITY           SKY/WX    TMP DP  RH WIND       PRES   REMARKS
LA GUARDIA NY  CLOUDY    45  34  65 SW8         N/A
RALEIGH NC     MOCLDY    54  47  77 SE5       30.07F
ATLANTA GA     CLOUDY    61  59  93 E12       29.90F
NEW ORLEANS LA FAIR      55  54  96 NW5       29.84F
OKLAHOMA CITY  FAIR      48  37  65 S5        29.93F
ALBUQUERQUE NM FAIR      50  30  46 S5        30.20F
SALT LAKE CITY CLOUDY    36  34  92 S7        30.08F
LOS ANGELES CA CLOUDY    57  57 100 W12       30.22F FOG
BOISE ID       CLOUDY    41  27  57 CALM      30.05R
SEATTLE WA     LGT RAIN  40  37  89 E9        30.14R
$$

*** WEATHER ACROSS MANITOBA...SASKATCHEWAN AND ONTARIO ***
                ***ONTARIO***

CITY           SKY/WX    TMP DP  RH WIND       PRES   REMARKS
GERALDTON      MOCLDY    28  28 100 CALM      29.66S
THUNDER BAY    CLOUDY    30  30 100 NW2       29.65F
SIOUX LOOKOUT  CLOUDY    32  30  93 CALM      29.65F
TORONTO        CLOUDY    37  36  93 SE5       29.92F
BIG TROUT LK   FLURRIES  25  19  80 W8        29.59  WCI  16
PICKLE LAKE    NOT AVBL
DRYDEN         CLOUDY    34  30  86 NW3       29.65S
KENORA         MOCLDY    30  30 100 NW3       29.68R
$$
                *** MANITOBA***

CITY           SKY/WX    TMP DP  RH WIND       PRES   REMARKS
BRANDON        CLOUDY    34  30  86 NE3       29.73R
DAUPHIN        CLOUDY    32  30  93 W5        29.77R
ISLAND LAKE    FLURRIES  28  25  86 W12       29.61S WCI  18
PILOT MOUND    NOT AVBL
THE PAS        CLOUDY    27  19  74 N13       29.72R WCI  16
THOMPSON       FLURRIES   5   0  78 NW9       29.69R WCI  -9
WINNIPEG       CLOUDY    32  32 100 N5        29.73R
LYNN LAKE      FLURRIES   3   0  85 N7        29.74R WCI  -9
CHURCHILL      LGT SNOW   3   0  85 NE21G30   29.71R VSB 3/4 WCI -18
GILLAM         FLURRIES   5   0  78 W10       29.60R WCI -10
$$
                ***SASKATCHEWAN***

CITY           SKY/WX    TMP DP  RH WIND       PRES   REMARKS
ESTEVAN        CLOUDY    32  32 100 N9        29.74R FOG     WCI  24
KINDERSLEY     CLOUDY    28  27  93 S5        29.80R WCI  23
LLOYDMINSTER   CLOUDY    28  27  93 N8        29.79R WCI  20
PRINCE ALBERT  CLOUDY    30  25  80 NW6       29.76R WCI  24
REGINA         CLOUDY    30  23  74 N12       29.80R WCI  21
YORKTON        CLOUDY    30  27  86 N10       29.77R WC



USA.gov is the U.S. government's official web portal to all federal, state and local government web resources and services.